Terug naar catalogus

COSMOS 1579 COOLANT

LostLEO
NORAD 27912·DEBRIS·🇷🇺 Russia

Gelanceerd Jun 29, 1984 vanaf Baikonur Cosmodrome

Loading…

Volgende Passages (komende 24 uur)

TLE

VerouderdSource: Space-Track

Epoch: Mar 22, 2007, 01:56 UTC

1 27912U 84069AE  07081.08086934 -.00000024  00000-0  52688-4 0  9992
2 27912  65.0438 239.4334 0059185 263.7668  95.6542 13.89756897214228

Volg COSMOS 1579 COOLANT in realtime met AllMySat

Download on the App Store